Location: Campillo
(40.8621°N, 4.2488°W)
Time: 23:30:29
(UTC+00:00)

Cosmos 2154 Rocket - Pass Details

Date: 30 September 2021
Orbit: 965 x 997 km, 82.9° (Epoch: 21 October)

Event Time Altitude Azimuth Distance (km) Brightness Sun altitude
Rises 19:34:57 0° 210° (SSW) 3,702 7.3 -18.6°
Reaches altitude 10° 19:37:41 10° 219° (SW) 2,757 6.7 -19.1°
Maximum altitude 19:43:28 37° 285° (WNW) 1,508 5.6 -20.2°
Drops below altitude 10° 19:49:18 10° 351° (N) 2,766 6.6 -21.2°
Sets 19:52:03 0° 0° (N) 3,716 7.2 -21.7°
